Location: Campretti
(42.4873°N, 9.1232°E)
Time: 00:19:13
(UTC+00:00)

Daily predictions for brighter satellites

Satellite Brightness Start Highest point End
(mag) Time Altitude Azimuth Time Altitude Azimuth Time Altitude Azimuth
Centaur D AC-28 4.2 03:11:17 23° SSE 03:11:17 23° SSE 03:19:20 10° ESE
COSMOS 2455 3.5 03:21:31 51° SE 03:21:31 51° SE 03:25:56 10° SE
Cosmos 2100 Rocket 4.4 03:21:35 10° S 03:27:36 58° E 03:33:37 10° NNE
ATLAS CENTAUR R/B 3.4 03:32:01 28° NE 03:32:01 28° NE 03:34:19 10° NE
SL-4 R/B 3.7 03:31:22 39° ESE 03:31:22 39° ESE 03:34:28 10° ESE
ATLAS 2AS CENTAUR R/B 2.8 03:33:17 59° NNW 03:34:49 78° NE 03:41:49 10° SE
Cosmos 2360 Rocket 3.4 03:35:55 25° N 03:38:28 38° ENE 03:43:44 10° SE
Cosmos 2298 Rocket 4.3 03:38:45 63° ESE 03:38:49 63° ESE 03:44:04 10° NNE
CZ-3B R/B 3.9 03:39:56 21° SSW 03:41:10 22° S 03:45:47 10° SE
Lacrosse 5 4.0 03:45:45 16° N 03:45:45 16° N 03:47:39 10° NNE
SL-16 R/B 2.2 03:47:32 70° S 03:47:32 70° S 03:52:31 10° SSE
Cosmos 1802 Rocket 4.3 03:43:53 10° S 03:50:14 67° E 03:56:35 10° NNE
Cosmos 2322 Rocket 2.0 03:52:06 84° NW 03:52:17 88° WSW 03:57:58 10° SSE
Cosmos 2173 Rocket 3.9 03:47:11 10° S 03:53:25 85° E 03:59:37 10° N
CZ-4B R/B 4.4 03:50:48 10° NNE 03:55:17 64° E 03:56:04 53° SSE
Cosmos 1151 Rocket 3.7 03:54:51 42° NE 03:55:50 52° E 04:00:04 10° SSE
USA 234 4.4 03:51:33 10° NE 03:56:46 26° N 03:57:32 26° NNW
CZ-2C R/B 2.9 04:03:12 10° N 04:06:29 43° N 04:06:29 43° N
Cosmos 1328 Rocket 3.4 04:12:42 71° N 04:13:09 88° E 04:17:28 10° S
Cosmos 2061 Rocket 3.9 04:07:09 10° S 04:13:23 87° E 04:19:37 10° N
Cosmos 1515 Rocket 3.9 04:16:48 14° N 04:20:28 65° E 04:24:47 10° SSE
Okean O Rocket 3.6 04:18:04 10° NE 04:21:52 29° E 04:25:38 10° SSE
Cosmos 2228 Rocket 4.3 04:18:05 10° N 04:22:30 44° ENE 04:26:52 10° SSE
SKYMED 2 4.1 04:18:21 10° SSE 04:22:36 57° ENE 04:26:52 10° N
Cosmos 1743 Rocket 4.1 04:19:53 10° S 04:24:07 57° E 04:28:22 10° NNE
Cosmos 1606 3.6 04:21:21 12° N 04:24:46 48° E 04:28:29 10° SSE
Cosmos 1825 2.0 04:22:10 10° S 04:25:55 84° W 04:29:43 10° N
Cosmos 2219 Rocket 3.8 04:21:29 10° N 04:26:33 32° NE 04:31:36 10° ESE
Cosmos 1125 Rocket 3.5 04:21:24 10° SSW 04:26:41 81° ESE 04:31:58 10° NNE
Cosmos 2322 4.3 04:22:45 12° NNW 04:27:58 55° ENE 04:33:31 10° SE
Cosmos 1459 Rocket 4.1 04:24:40 10° SSW 04:30:40 50° WNW 04:36:49 10° N
Cosmos 372 Rocket 4.0 04:30:00 39° WSW 04:31:26 50° WNW 04:36:25 10° N
Cosmos 1408 Rocket 3.6 04:33:24 10° SSW 04:37:35 49° WNW 04:41:49 10° N
Cosmos 2150 Rocket 4.3 04:35:47 29° WSW 04:38:07 45° WNW 04:43:18 10° N
Cosmos 2333 Rocket 3.4 04:34:03 10° NNW 04:39:31 42° ENE 04:44:57 10° SE
NOSS 3-4 (A) 4.0 04:41:26 24° NW 04:45:52 55° WSW 04:53:24 10° SSE
NOSS 3-4 (C) 4.0 04:41:31 24° NW 04:45:58 55° WSW 04:53:31 10° SSE
Cosmos 1500 Rocket 3.5 04:41:39 10° S 04:46:07 89° WNW 04:50:34 10° N
Cosmos 2016 Rocket 4.0 04:40:27 10° SSW 04:46:35 55° WNW 04:52:50 10° N
Lacrosse 5 rocket 2.0 04:45:14 25° NNW 04:46:50 41° NE 04:50:14 10° ESE
Cosmos 1725 Rocket 3.9 04:41:39 10° SSW 04:47:53 68° W 04:54:12 10° N
STARLINK-46 2.8 04:47:53 53° NNW 04:48:23 70° NE 04:51:20 10° ESE
Cosmos 1933 3.2 04:45:57 14° NNW 04:49:24 68° W 04:53:22 10° S
SJ-12 3.8 04:45:35 10° NNE 04:49:45 85° WNW 04:53:53 10° SSW
Cosmos 972 Rocket 4.0 04:45:13 10° SSW 04:50:20 90° WNW 04:56:04 10° NNE
BREEZE-M DEB (TANK) 3.5 04:43:40 21° WNW 04:50:46 69° SW 04:54:21 10° SE
Cosmos 1484 Rocket 2.9 04:50:55 10° N 04:54:50 51° WNW 04:58:42 10° SSW
ALOS 2.2 04:52:50 10° NNE 04:57:33 89° ESE 05:02:12 10° SSW
Meteor PRIRODA 4.3 04:58:10 10° N 05:01:25 30° WNW 05:04:37 10° SW
COSMOS 2455 4.2 05:04:44 17° W 05:05:09 18° WSW 05:08:58 10° SW
ATLAS CENTAUR R/B 3.2 05:08:17 18° NW 05:09:00 19° NW 05:12:20 10° N
Cosmos 1782 3.2 05:05:07 10° N 05:09:05 66° E 05:13:00 10° SSE
SL-4 R/B 3.6 05:06:59 20° W 05:09:07 27° SW 05:13:07 10° S
MOS 1-B 4.4 05:04:37 10° N 05:10:18 58° WNW 05:15:56 10° SSW
COSMO-SKYMED 1 2.9 05:06:30 10° S 05:10:36 42° W 05:14:45 10° NNW
USA 116 3.4 05:07:29 10° S 05:10:47 62° W 05:14:31 10° NNW
PAYLOAD B 4.1 05:05:43 10° N 05:11:12 71° WNW 05:16:40 10° SSW
CZ-4B DEB 4.2 05:07:01 10° N 05:12:25 61° WNW 05:17:49 10° SSW
Cosmos 1238 Rocket 3.9 05:07:51 10° SSW 05:14:14 62° W 05:19:52 10° N
STARLINK-60 4.4 05:13:00 15° NNW 05:15:17 31° NNE 05:18:20 10° E
BREEZE-M DEB (TANK) 2.4 05:15:55 21° W 05:17:37 57° SSW 05:20:25 10° SE
Meteor 1-26 Rocket 4.2 05:14:16 10° NNW 05:19:47 58° W 05:25:10 10° S
Tsikada Rocket 4.3 05:14:07 10° NNW 05:20:08 46° W 05:26:04 10° SSW
Cosmos 2360 Rocket 2.9 05:17:44 12° NW 05:22:22 33° WSW 05:27:20 10° SSW
Abrixas rocket 3.4 05:21:33 17° NW 05:23:06 25° N 05:25:41 10° ENE
Cosmos 972 4.5 05:18:15 10° SSW 05:23:12 89° WNW 05:28:36 10° NNE
Cosmos 1400 Rocket 3.3 05:20:05 10° NNW 05:23:51 39° W 05:27:33 10° SSW
ATLAS 2AS CENTAUR R/B 3.9 05:20:47 14° WNW 05:24:52 22° WSW 05:29:57 10° SSW
ADEOS Rocket 4.4 05:17:50 10° SE 05:25:11 50° ENE 05:32:05 10° N
STARLINK 1040 4.4 05:24:23 10° SSW 05:26:49 32° SE 05:29:16 10° ENE
Lacrosse 5 3.9 05:25:38 10° NNW 05:28:48 16° N 05:32:00 10° NE
Cosmos 2237 Rocket 3.5 05:24:03 10° N 05:29:22 39° ENE 05:34:37 10° SE
SL-16 R/B 4.0 05:29:29 11° W 05:30:00 11° W 05:31:25 10° WSW
COSMOS 2428 2.7 05:25:43 10° NNW 05:31:28 83° WSW 05:37:12 10° SSE
Gbstr 26 Del rocket 4.3 05:30:02 10° NW 05:32:56 22° N 05:35:56 10° ENE
Cosmos 1862 4.1 05:29:07 10° S 05:32:59 56° E 05:36:53 10° NNE
Cosmos 1818 3.5 05:27:36 10° SW 05:33:03 81° WNW 05:38:33 10° NNE
METEOR-M 4.4 05:28:16 10° N 05:33:22 46° WNW 05:38:25 10° SW
Cosmos 2322 Rocket 3.9 05:33:59 11° W 05:35:26 12° W 05:37:23 10° WSW
CZ-3B R/B 3.8 05:38:33 10° SW 05:40:58 12° SSW 05:42:56 10° S
Okean-O 4.3 05:38:06 10° NNE 05:42:16 39° E 05:46:24 10° SSE
Radarsat Rocket 3.9 05:39:33 10° NNE 05:45:23 78° WNW 05:51:30 10° SSW
Helios 1A Rocket 3.6 05:42:06 10° N 05:45:46 32° WNW 05:49:23 10° SW
FENGYUN 3A 4.2 05:42:54 10° N 05:47:50 37° WNW 05:52:45 10° SW
STARLINK-52 4.3 05:44:40 10° NW 05:47:58 37° NNE 05:51:16 10° E
IRS-1C Rocket 4.1 05:48:52 10° NNE 05:54:10 87° WNW 05:59:26 10° SSW
Envisat 4.3 05:50:30 10° NNE 05:55:24 46° E 06:00:16 10° S
Cosmos 1980 4.2 05:50:03 10° NNW 05:55:42 66° ENE 06:01:19 10° SE
